EW4196 Weather Reports


Display with metric or nautical units.
time (UTC)temp
F
wind
direction
speed
MPH
gust
MPH
rain 1hr
in
rain 24hr
in
rain mn
in
humidity
%
barometer
mb
20260905081503 77 105 0.0 0.0 0.00 0.00 0.00 76 1011.5
20260905080002 77 105 0.0 0.0 0.00 0.00 0.00 75 1011.5
20260905074604 78 105 0.0 0.0 0.00 0.00 0.00 75 1011.5
20260905073107 78 105 0.0 0.0 0.00 0.00 0.00 75 1011.3
20260905071557 78 105 0.0 0.0 0.00 0.00 0.00 74 1011.3
20260905070055 79 105 0.0 0.0 0.00 0.00 0.00 72 1011.3
20260905064609 79 105 0.0 0.0 0.00 0.00 0.00 72 1011.5
20260905063057 79 105 0.0 0.0 0.00 0.00 0.00 71 1011.4
20260905061613 80 105 0.0 0.0 0.00 0.00 0.00 70 1011.4
20260905060051 80 105 0.0 0.0 0.00 0.00 0.00 70 1011.4
20260905054548 79 105 0.0 0.0 0.00 0.00 0.00 71 1011.3
20260905053045 80 105 0.0 0.0 0.00 0.00 0.00 71 1011.3
20260905051557 80 105 0.0 0.0 0.00 0.00 0.00 70 1011.3
20260905050041 81 105 0.0 0.0 0.00 0.00 0.00 70 1011.2
20260905044551 81 105 0.0 0.0 0.00 0.00 0.00 69 1011.3
20260905043039 82 105 0.0 0.0 0.00 0.00 0.00 67 1011.3
20260905041539 83 105 0.0 0.0 0.00 0.00 0.00 66 1011.3
20260905040047 84 105 0.0 0.0 0.00 0.00 0.00 64 1011.2
20260905034555 85 105 0.0 0.0 0.00 0.00 0.00 61 1011.1
20260905033056 85 105 0.0 0.0 0.00 0.00 0.00 60 1011.0
20260905031537 84 105 0.0 0.0 0.00 0.00 0.00 62 1010.9
20260905030037 85 105 0.0 0.0 0.00 0.00 0.00 60 1010.8
20260905024536 86 105 0.0 0.0 0.00 0.00 0.00 59 1010.6
20260905023108 87 105 0.0 0.0 0.00 0.00 0.00 57 1010.5
20260905021535 87 105 0.0 0.0 0.00 0.00 0.00 55 1010.3
20260905020035 88 105 0.0 0.0 0.00 0.00 0.00 54 1009.9
20260905014533 89 105 0.0 0.0 0.00 0.00 0.00 51 1009.7
20260905013033 91 105 0.0 0.0 0.00 0.00 0.00 48 1009.5
20260905011533 93 105 0.0 0.0 0.00 0.00 0.00 45 1009.4
20260905010037 94 103 0.0 0.0 0.00 0.00 0.00 44 1009.2
20260905004532 95 94 0.0 1.0 0.00 0.00 0.00 43 1009.1
20260905003031 96 98 0.0 4.0 0.00 0.00 0.00 42 1009.1
20260905001531 96 95 0.0 4.0 0.00 0.00 0.00 42 1009.2
20260905000030 97 103 0.0 5.0 0.00 0.00 0.00 40 1009.2
20260904234534 98 131 0.0 6.0 0.00 0.00 0.00 38 1009.1
20260904233029 99 98 0.0 4.0 0.00 0.00 0.00 38 1009.0
20260904231528 100 93 0.0 8.0 0.00 0.00 0.00 38 1009.1
20260904230027 100 137 0.0 8.0 0.00 0.00 0.00 38 1009.1
20260904224528 100 102 1.0 6.0 0.00 0.00 0.00 38 1009.1
20260904223024 100 97 3.0 7.0 0.00 0.00 0.00 38 1009.2
20260904221523 99 97 2.0 8.0 0.00 0.00 0.00 40 1009.2
20260904220027 99 103 2.0 8.0 0.00 0.00 0.00 40 1009.3
20260904214519 99 102 3.0 7.0 0.00 0.00 0.00 41 1009.5
20260904213019 100 101 0.0 8.0 0.00 0.00 0.00 39 1009.6
20260904211516 99 133 0.0 4.0 0.00 0.00 0.00 40 1009.7
20260904210019 99 98 3.0 9.0 0.00 0.00 0.00 41 1009.9
20260904204514 99 131 0.0 3.0 0.00 0.00 0.00 41 1010.0
20260904203012 99 124 1.0 11.0 0.00 0.00 0.00 42 1010.2
20260904201510 98 129 0.0 8.0 0.00 0.00 0.00 44 1010.3
20260904200017 98 96 1.0 6.0 0.00 0.00 0.00 43 1010.6
20260904194521 98 128 0.0 7.0 0.00 0.00 0.00 43 1010.8
20260904193006 98 128 3.0 8.0 0.00 0.00 0.00 43 1010.9
20260904191504 99 105 0.0 11.0 0.00 0.00 0.00 42 1011.0
20260904190002 99 91 1.0 8.0 0.00 0.00 0.00 43 1011.2
20260904184616 99 160 0.0 3.0 0.00 0.00 0.00 44 1011.3
20260904183055 97 107 0.0 8.0 0.00 0.00 0.00 45 1011.5
20260904181604 97 91 3.0 7.0 0.00 0.00 0.00 45 1011.8
20260904180110 96 96 0.0 7.0 0.00 0.00 0.00 47 1011.8
20260904174605 96 108 3.0 6.0 0.00 0.00 0.00 48 1012.1
20260904173043 95 176 3.0 9.0 0.00 0.00 0.00 49 1012.1
20260904171541 95 100 0.0 8.0 0.00 0.00 0.00 49 1012.4
20260904170037 93 129 2.0 11.0 0.00 0.00 0.00 52 1012.6
20260904164536 93 136 0.0 8.0 0.00 0.00 0.00 51 1012.7
20260904163036 93 91 0.0 7.0 0.00 0.00 0.00 53 1012.8
20260904161527 91 130 0.0 3.0 0.00 0.00 0.00 55 1012.8
20260904160024 90 153 0.0 7.0 0.00 0.00 0.00 59 1012.9
20260904154520 89 93 2.0 8.0 0.00 0.00 0.00 59 1012.9
20260904153023 88 175 1.0 8.0 0.00 0.00 0.00 62 1012.9
20260904151514 87 102 0.0 5.0 0.00 0.00 0.00 63 1012.9
20260904150013 86 132 0.0 4.0 0.00 0.00 0.00 66 1012.8
20260904144508 85 92 2.0 7.0 0.00 0.00 0.00 68 1013.0
20260904143004 84 139 1.0 6.0 0.00 0.00 0.00 70 1013.0
20260904141502 82 92 2.0 8.0 0.00 0.00 0.00 73 1013.1
20260904140001 80 97 0.0 4.0 0.00 0.00 0.00 76 1013.1
20260904134559 79 108 0.0 4.0 0.00 0.00 0.00 78 1013.0
20260904133107 78 105 0.0 2.0 0.00 0.00 0.00 79 1013.0
20260904131556 78 105 0.0 3.0 0.00 0.00 0.00 80 1012.8
20260904130054 77 94 0.0 3.0 0.00 0.00 0.00 81 1012.7
20260904124605 77 101 0.0 5.0 0.00 0.00 0.00 81 1012.6
20260904123109 76 94 0.0 2.0 0.00 0.00 0.00 82 1012.6
20260904121555 76 96 0.0 1.0 0.00 0.00 0.00 82 1012.6
20260904120049 76 95 0.0 0.0 0.00 0.00 0.00 82 1012.5
20260904114548 76 94 0.0 1.0 0.00 0.00 0.00 82 1012.6
20260904113053 76 95 0.0 1.0 0.00 0.00 0.00 81 1012.4
20260904111543 77 131 0.0 0.0 0.00 0.00 0.00 81 1012.3
20260904110051 77 105 0.0 0.0 0.00 0.00 0.00 81 1012.2
20260904104537 77 105 0.0 3.0 0.00 0.00 0.00 80 1012.3
20260904103036 77 103 0.0 1.0 0.00 0.00 0.00 80 1012.1
20260904101535 77 103 0.0 0.0 0.00 0.00 0.00 80 1011.9
20260904100040 77 103 0.0 0.0 0.00 0.00 0.00 79 1011.8
20260904094531 77 103 0.0 0.0 0.00 0.00 0.00 77 1011.7
20260904093037 78 103 0.0 0.0 0.00 0.00 0.00 77 1011.8
20260904091528 78 103 0.0 0.0 0.00 0.00 0.00 76 1011.7
20260904090025 79 108 0.0 0.0 0.00 0.00 0.00 75 1011.5
20260904084524 79 92 0.0 1.0 0.00 0.00 0.00 75 1011.4
20260904083025 79 92 0.0 0.0 0.00 0.00 0.00 74 1011.4